Time,TemperatureF,DewpointF,PressureIn,WindDirection,WindDirectionDegrees,WindSpeedMPH,WindSpeedGustMPH,Humidity,HourlyPrecipIn,Conditions,Clouds,dailyrainin,SoftwareType,DateUTC
2013-06-23 00:01:00,79.2,68.6,30.03,SSE,158,4.0,4.7,70,0.00,,,0.00,WUHU216HW,2013-06-23 05:01:00,
2013-06-23 00:06:00,79.2,68.9,30.02,East,90,3.4,5.4,71,0.00,,,0.00,WUHU216HW,2013-06-23 05:06:00,
2013-06-23 00:11:00,79.0,68.8,30.03,SSE,158,3.4,5.4,71,0.00,,,0.00,WUHU216HW,2013-06-23 05:11:00,
2013-06-23 00:16:00,78.8,68.6,30.03,SSE,158,1.1,4.7,71,0.00,,,0.00,WUHU216HW,2013-06-23 05:16:00,
2013-06-23 00:21:00,78.8,68.6,30.03,South,180,1.3,4.9,71,0.00,,,0.00,WUHU216HW,2013-06-23 05:21:00,
2013-06-23 00:26:00,78.8,68.6,30.03,SSW,203,3.6,4.9,71,0.00,,,0.00,WUHU216HW,2013-06-23 05:26:00,
2013-06-23 00:31:00,78.7,68.5,30.03,SSE,158,0.9,4.7,71,0.00,,,0.00,WUHU216HW,2013-06-23 05:31:00,
2013-06-23 00:37:00,78.7,68.5,30.03,South,180,2.7,5.6,71,0.00,,,0.00,WUHU216HW,2013-06-23 05:37:00,
2013-06-23 00:42:00,78.5,68.3,30.03,SSE,158,3.1,5.8,71,0.00,,,0.00,WUHU216HW,2013-06-23 05:42:00,
2013-06-23 00:47:00,78.5,68.7,30.02,SSW,203,3.1,5.8,72,0.00,,,0.00,WUHU216HW,2013-06-23 05:47:00,
2013-06-23 00:52:00,78.5,68.7,30.02,SSE,158,1.8,5.8,72,0.00,,,0.00,WUHU216HW,2013-06-23 05:52:00,
2013-06-23 00:57:00,78.3,68.5,30.02,South,180,2.5,5.1,72,0.00,,,0.00,WUHU216HW,2013-06-23 05:57:00,
2013-06-23 01:01:00,78.3,68.5,30.02,SE,135,1.1,7.4,72,0.00,,,0.00,WUHU216HW,2013-06-23 06:01:00,
2013-06-23 01:06:00,78.1,68.3,30.02,SE,135,1.8,7.4,72,0.00,,,0.00,WUHU216HW,2013-06-23 06:06:00,
2013-06-23 01:11:00,78.1,68.3,30.02,South,180,4.0,5.8,72,0.00,,,0.00,WUHU216HW,2013-06-23 06:11:00,
2013-06-23 01:16:00,78.1,68.3,30.01,SSE,158,4.3,5.8,72,0.00,,,0.00,WUHU216HW,2013-06-23 06:16:00,
2013-06-23 01:21:00,77.9,68.2,30.01,SE,135,2.9,7.6,72,0.00,,,0.00,WUHU216HW,2013-06-23 06:21:00,
2013-06-23 01:26:00,77.9,68.2,30.01,South,180,1.8,7.6,72,0.00,,,0.00,WUHU216HW,2013-06-23 06:26:00,
2013-06-23 01:31:00,77.8,68.1,30.00,ESE,113,1.6,6.0,72,0.00,,,0.00,WUHU216HW,2013-06-23 06:31:00,
2013-06-23 01:36:00,77.8,68.1,30.00,SE,135,3.4,8.5,72,0.00,,,0.00,WUHU216HW,2013-06-23 06:36:00,
2013-06-23 01:41:00,77.8,68.1,30.00,SSW,203,3.8,8.5,72,0.00,,,0.00,WUHU216HW,2013-06-23 06:41:00,
2013-06-23 01:46:00,77.8,68.1,30.00,SSW,203,5.4,7.6,72,0.00,,,0.00,WUHU216HW,2013-06-23 06:46:00,
2013-06-23 01:51:00,77.6,68.2,29.99,SE,135,4.7,7.6,73,0.00,,,0.00,WUHU216HW,2013-06-23 06:51:00,
2013-06-23 01:56:00,77.4,67.7,29.99,SSW,203,4.7,6.9,72,0.00,,,0.00,WUHU216HW,2013-06-23 06:56:00,
2013-06-23 02:01:00,77.4,68.0,29.99,SE,135,5.1,6.3,73,0.00,,,0.00,WUHU216HW,2013-06-23 07:01:00,
2013-06-23 02:06:00,77.4,68.0,29.99,SSE,158,4.3,6.5,73,0.00,,,0.00,WUHU216HW,2013-06-23 07:06:00,
2013-06-23 02:11:00,77.4,68.0,29.99,SE,135,2.0,6.9,73,0.00,,,0.00,WUHU216HW,2013-06-23 07:11:00,
2013-06-23 02:16:00,77.2,67.9,29.99,SSE,158,3.8,6.9,73,0.00,,,0.00,WUHU216HW,2013-06-23 07:16:00,
2013-06-23 02:21:00,77.2,67.9,29.99,SSE,158,2.7,7.4,73,0.00,,,0.00,WUHU216HW,2013-06-23 07:21:00,
2013-06-23 02:26:00,77.0,67.8,29.99,SSE,158,2.0,7.4,73,0.00,,,0.00,WUHU216HW,2013-06-23 07:26:00,
2013-06-23 02:31:00,77.0,67.8,29.99,SE,135,2.2,6.3,73,0.00,,,0.00,WUHU216HW,2013-06-23 07:31:00,
2013-06-23 02:36:00,76.9,68.0,29.99,ESE,113,2.9,5.6,74,0.00,,,0.00,WUHU216HW,2013-06-23 07:36:00,
2013-06-23 02:41:00,76.9,68.0,29.99,SW,225,1.8,5.6,74,0.00,,,0.00,WUHU216HW,2013-06-23 07:41:00,
2013-06-23 02:46:00,76.7,67.8,29.99,SW,225,3.4,4.3,74,0.00,,,0.00,WUHU216HW,2013-06-23 07:46:00,
2013-06-23 02:51:00,76.7,67.8,29.99,South,180,2.7,4.0,74,0.00,,,0.00,WUHU216HW,2013-06-23 07:51:00,
2013-06-23 02:56:00,76.7,67.8,29.99,SSE,158,1.3,3.8,74,0.00,,,0.00,WUHU216HW,2013-06-23 07:56:00,
2013-06-23 03:01:00,76.5,68.0,29.99,North,0,1.1,4.9,75,0.00,,,0.00,WUHU216HW,2013-06-23 08:01:00,
2013-06-23 03:06:00,76.5,68.0,29.99,SE,135,1.8,5.1,75,0.00,,,0.00,WUHU216HW,2013-06-23 08:06:00,
2013-06-23 03:11:00,76.3,67.8,30.00,SSE,158,0.9,7.4,75,0.00,,,0.00,WUHU216HW,2013-06-23 08:11:00,
2013-06-23 03:16:00,76.3,67.8,29.99,South,180,1.8,7.4,75,0.00,,,0.00,WUHU216HW,2013-06-23 08:16:00,
2013-06-23 03:21:00,76.3,67.8,29.99,SW,225,1.8,6.5,75,0.00,,,0.00,WUHU216HW,2013-06-23 08:21:00,
2013-06-23 03:26:00,76.1,67.7,29.99,SSW,203,4.3,6.0,75,0.00,,,0.00,WUHU216HW,2013-06-23 08:26:00,
2013-06-23 03:31:00,76.1,67.7,30.00,SSE,158,4.7,6.0,75,0.00,,,0.00,WUHU216HW,2013-06-23 08:31:00,
2013-06-23 03:36:00,76.0,67.5,30.00,SE,135,1.8,6.3,75,0.00,,,0.00,WUHU216HW,2013-06-23 08:36:00,
2013-06-23 03:41:00,76.0,67.9,30.00,SE,135,3.4,6.3,76,0.00,,,0.00,WUHU216HW,2013-06-23 08:41:00,
2013-06-23 03:46:00,76.0,67.9,29.99,WNW,293,1.1,5.4,76,0.00,,,0.00,WUHU216HW,2013-06-23 08:46:00,
2013-06-23 03:51:00,76.0,67.9,30.00,East,90,3.4,4.0,76,0.00,,,0.00,WUHU216HW,2013-06-23 08:51:00,
2013-06-23 03:56:00,75.8,67.7,29.99,SSE,158,6.9,6.9,76,0.00,,,0.00,WUHU216HW,2013-06-23 08:56:00,
2013-06-23 04:01:00,75.6,67.5,30.00,SSE,158,3.1,6.9,76,0.00,,,0.00,WUHU216HW,2013-06-23 09:01:00,
2013-06-23 04:06:00,75.6,67.5,30.00,South,180,0.9,6.9,76,0.00,,,0.00,WUHU216HW,2013-06-23 09:06:00,
2013-06-23 04:11:00,75.4,67.8,30.00,SSE,158,3.6,4.7,77,0.00,,,0.00,WUHU216HW,2013-06-23 09:11:00,
2013-06-23 04:16:00,75.4,67.8,30.00,East,90,1.6,4.5,77,0.00,,,0.00,WUHU216HW,2013-06-23 09:16:00,
2013-06-23 04:21:00,75.2,67.6,30.00,SSW,203,3.8,4.7,77,0.00,,,0.00,WUHU216HW,2013-06-23 09:21:00,
2013-06-23 04:26:00,75.2,67.6,30.01,NW,315,0.4,4.7,77,0.00,,,0.00,WUHU216HW,2013-06-23 09:26:00,
2013-06-23 04:31:00,75.2,67.6,30.01,South,180,2.2,6.0,77,0.00,,,0.00,WUHU216HW,2013-06-23 09:31:00,
2013-06-23 04:36:00,75.1,67.8,30.01,SSE,158,1.8,6.0,78,0.00,,,0.00,WUHU216HW,2013-06-23 09:36:00,
2013-06-23 04:41:00,75.1,67.8,30.00,South,180,3.1,6.3,78,0.00,,,0.00,WUHU216HW,2013-06-23 09:41:00,
2013-06-23 04:46:00,74.9,67.6,30.01,SE,135,2.5,6.3,78,0.00,,,0.00,WUHU216HW,2013-06-23 09:46:00,
2013-06-23 04:51:00,74.9,67.6,30.01,SSE,158,4.0,5.4,78,0.00,,,0.00,WUHU216HW,2013-06-23 09:51:00,
2013-06-23 04:56:00,74.9,67.6,30.01,SSE,158,4.7,4.7,78,0.00,,,0.00,WUHU216HW,2013-06-23 09:56:00,
2013-06-23 05:01:00,74.7,67.4,30.01,SSE,158,2.2,4.9,78,0.00,,,0.00,WUHU216HW,2013-06-23 10:01:00,
2013-06-23 05:06:00,74.7,67.4,30.01,SSE,158,2.7,4.9,78,0.00,,,0.00,WUHU216HW,2013-06-23 10:06:00,
2013-06-23 05:11:00,74.7,67.4,30.00,SE,135,3.4,5.6,78,0.00,,,0.00,WUHU216HW,2013-06-23 10:11:00,
2013-06-23 05:16:00,74.5,67.7,30.00,SE,135,3.1,5.6,79,0.00,,,0.00,WUHU216HW,2013-06-23 10:16:00,
2013-06-23 05:21:00,74.5,67.7,30.00,SSE,158,3.4,4.7,79,0.00,,,0.00,WUHU216HW,2013-06-23 10:21:00,
2013-06-23 05:26:00,74.5,67.7,30.00,SSE,158,1.8,6.7,79,0.00,,,0.00,WUHU216HW,2013-06-23 10:26:00,
2013-06-23 05:31:00,74.3,67.5,30.00,SW,225,3.4,6.7,79,0.00,,,0.00,WUHU216HW,2013-06-23 10:31:00,
2013-06-23 05:36:00,74.3,67.5,30.00,SW,225,3.4,6.3,79,0.00,,,0.00,WUHU216HW,2013-06-23 10:36:00,
2013-06-23 05:41:00,74.3,67.5,30.00,SSW,203,2.9,7.6,79,0.00,,,0.00,WUHU216HW,2013-06-23 10:41:00,
2013-06-23 05:46:00,74.2,67.3,30.00,SW,225,1.6,7.6,79,0.00,,,0.00,WUHU216HW,2013-06-23 10:46:00,
2013-06-23 05:51:00,74.2,67.3,30.00,South,180,5.4,6.3,79,0.00,,,0.00,WUHU216HW,2013-06-23 10:51:00,
2013-06-23 05:56:00,74.2,67.3,30.00,ESE,113,4.7,6.3,79,0.00,,,0.00,WUHU216HW,2013-06-23 10:56:00,
2013-06-23 06:01:00,74.2,67.7,30.00,SSW,203,4.0,5.4,80,0.00,,,0.00,WUHU216HW,2013-06-23 11:01:00,
2013-06-23 06:06:00,74.2,67.7,30.00,SSE,158,4.7,7.2,80,0.00,,,0.00,WUHU216HW,2013-06-23 11:06:00,
2013-06-23 06:11:00,74.2,67.7,30.00,SSW,203,5.8,7.8,80,0.00,,,0.00,WUHU216HW,2013-06-23 11:11:00,
2013-06-23 06:16:00,74.2,67.7,29.99,SSE,158,4.7,7.8,80,0.00,,,0.00,WUHU216HW,2013-06-23 11:16:00,
2013-06-23 06:21:00,74.2,67.7,29.99,South,180,2.7,6.3,80,0.00,,,0.00,WUHU216HW,2013-06-23 11:21:00,
2013-06-23 06:26:00,74.2,67.7,29.99,SSW,203,4.5,7.2,80,0.00,,,0.00,WUHU216HW,2013-06-23 11:26:00,
2013-06-23 06:31:00,74.2,67.7,29.99,South,180,2.7,9.8,80,0.00,,,0.00,WUHU216HW,2013-06-23 11:31:00,
2013-06-23 06:36:00,74.3,67.9,29.99,South,180,6.5,9.8,80,0.00,,,0.00,WUHU216HW,2013-06-23 11:36:00,
2013-06-23 06:41:00,74.3,67.9,29.99,SSW,203,4.7,6.5,80,0.00,,,0.00,WUHU216HW,2013-06-23 11:41:00,
2013-06-23 06:46:00,74.3,67.9,29.99,South,180,8.5,8.5,80,0.00,,,0.00,WUHU216HW,2013-06-23 11:46:00,
2013-06-23 06:51:00,74.3,67.9,29.99,SW,225,2.5,8.5,80,0.00,,,0.00,WUHU216HW,2013-06-23 11:51:00,
2013-06-23 06:56:00,74.5,68.0,29.99,West,270,2.7,8.5,80,0.00,,,0.00,WUHU216HW,2013-06-23 11:56:00,
2013-06-23 07:01:00,74.5,68.0,29.99,South,180,1.1,5.6,80,0.00,,,0.00,WUHU216HW,2013-06-23 12:01:00,
2013-06-23 07:06:00,74.7,68.2,29.99,SSE,158,3.4,5.6,80,0.00,,,0.00,WUHU216HW,2013-06-23 12:06:00,
2013-06-23 07:11:00,74.7,68.2,29.99,SSE,158,1.1,8.7,80,0.00,,,0.00,WUHU216HW,2013-06-23 12:11:00,
2013-06-23 07:16:00,74.9,68.4,29.99,SE,135,4.3,8.7,80,0.00,,,0.00,WUHU216HW,2013-06-23 12:16:00,
2013-06-23 07:21:00,75.1,68.6,29.99,SSW,203,1.8,5.4,80,0.00,,,0.00,WUHU216HW,2013-06-23 12:21:00,
2013-06-23 07:26:00,75.1,68.6,29.99,SW,225,3.6,7.6,80,0.00,,,0.00,WUHU216HW,2013-06-23 12:26:00,
2013-06-23 07:31:00,75.2,68.8,29.99,South,180,2.0,7.6,80,0.00,,,0.00,WUHU216HW,2013-06-23 12:31:00,
2013-06-23 07:36:00,75.4,69.0,29.99,SSE,158,2.9,6.7,80,0.00,,,0.00,WUHU216HW,2013-06-23 12:36:00,
2013-06-23 07:41:00,75.6,69.1,29.99,ESE,113,3.4,8.1,80,0.00,,,0.00,WUHU216HW,2013-06-23 12:41:00,
2013-06-23 07:46:00,75.8,69.2,29.99,South,180,7.6,8.1,80,0.00,,,0.00,WUHU216HW,2013-06-23 12:46:00,
2013-06-23 07:51:00,76.0,69.0,29.99,SSW,203,4.0,7.6,79,0.00,,,0.00,WUHU216HW,2013-06-23 12:51:00,
2013-06-23 07:56:00,76.3,69.4,29.99,SE,135,1.6,7.6,79,0.00,,,0.00,WUHU216HW,2013-06-23 12:56:00,
2013-06-23 08:01:00,76.5,69.5,29.99,SSE,158,4.7,7.8,79,0.00,,,0.00,WUHU216HW,2013-06-23 13:01:00,
2013-06-23 08:06:00,76.7,69.3,29.99,SSE,158,4.7,11.0,78,0.00,,,0.00,WUHU216HW,2013-06-23 13:06:00,
2013-06-23 08:11:00,76.9,69.5,29.99,SE,135,4.0,11.0,78,0.00,,,0.00,WUHU216HW,2013-06-23 13:11:00,
2013-06-23 08:16:00,77.0,69.7,29.99,South,180,2.2,10.7,78,0.00,,,0.00,WUHU216HW,2013-06-23 13:16:00,
2013-06-23 08:21:00,77.4,70.0,30.00,ESE,113,2.7,8.9,78,0.00,,,0.00,WUHU216HW,2013-06-23 13:21:00,
2013-06-23 08:26:00,77.6,69.8,30.00,East,90,2.0,8.9,77,0.00,,,0.00,WUHU216HW,2013-06-23 13:26:00,
2013-06-23 08:31:00,77.8,69.9,30.00,SSE,158,6.5,8.7,77,0.00,,,0.00,WUHU216HW,2013-06-23 13:31:00,
2013-06-23 08:36:00,77.9,70.1,30.01,SSW,203,3.8,8.7,77,0.00,,,0.00,WUHU216HW,2013-06-23 13:36:00,
2013-06-23 08:41:00,78.1,69.9,30.00,SSW,203,3.4,8.5,76,0.00,,,0.00,WUHU216HW,2013-06-23 13:41:00,
2013-06-23 08:46:00,78.3,70.1,30.01,SE,135,2.5,8.9,76,0.00,,,0.00,WUHU216HW,2013-06-23 13:46:00,
2013-06-23 08:51:00,78.5,70.3,30.01,SSE,158,5.4,8.9,76,0.00,,,0.00,WUHU216HW,2013-06-23 13:51:00,
2013-06-23 08:56:00,78.7,70.0,30.01,WSW,248,4.7,7.4,75,0.00,,,0.00,WUHU216HW,2013-06-23 13:56:00,
2013-06-23 09:01:00,78.8,70.2,30.01,SSW,203,6.5,8.3,75,0.00,,,0.00,WUHU216HW,2013-06-23 14:01:00,
2013-06-23 09:06:00,78.8,70.2,30.01,SE,135,7.6,8.3,75,0.00,,,0.00,WUHU216HW,2013-06-23 14:06:00,
2013-06-23 09:11:00,79.0,70.4,30.02,SSE,158,3.4,7.6,75,0.00,,,0.00,WUHU216HW,2013-06-23 14:11:00,
2013-06-23 09:16:00,79.4,70.7,30.02,SSW,203,2.7,7.6,75,0.00,,,0.00,WUHU216HW,2013-06-23 14:16:00,
2013-06-23 09:21:00,79.4,70.7,30.03,WSW,248,2.5,5.4,75,0.00,,,0.00,WUHU216HW,2013-06-23 14:21:00,
2013-06-23 09:26:00,79.6,70.9,30.03,SSW,203,3.4,5.8,75,0.00,,,0.00,WUHU216HW,2013-06-23 14:26:00,
2013-06-23 09:32:00,79.7,70.8,30.03,SSE,158,3.4,8.9,74,0.00,,,0.00,WUHU216HW,2013-06-23 14:32:00,
2013-06-23 09:37:00,79.7,70.8,30.02,SSW,203,4.0,8.9,74,0.00,,,0.00,WUHU216HW,2013-06-23 14:37:00,
2013-06-23 09:42:00,79.7,70.8,30.03,SSW,203,6.3,6.3,74,0.00,,,0.00,WUHU216HW,2013-06-23 14:42:00,
2013-06-23 09:47:00,79.6,70.6,30.03,SW,225,2.7,6.3,74,0.00,,,0.00,WUHU216HW,2013-06-23 14:47:00,
2013-06-23 09:52:00,79.6,70.6,30.03,SSW,203,2.5,6.0,74,0.00,,,0.00,WUHU216HW,2013-06-23 14:52:00,
2013-06-23 09:57:00,79.6,70.6,30.03,SW,225,2.5,7.4,74,0.00,,,0.00,WUHU216HW,2013-06-23 14:57:00,
2013-06-23 10:02:00,79.6,70.9,30.03,SSE,158,2.5,7.4,75,0.00,,,0.00,WUHU216HW,2013-06-23 15:02:00,
2013-06-23 10:07:00,79.7,70.8,30.03,SSE,158,3.4,5.4,74,0.00,,,0.00,WUHU216HW,2013-06-23 15:07:00,
2013-06-23 10:12:00,79.9,70.9,30.03,SSW,203,1.8,5.4,74,0.00,,,0.00,WUHU216HW,2013-06-23 15:12:00,
2013-06-23 10:17:00,79.9,70.9,30.03,SW,225,1.3,5.4,74,0.00,,,0.00,WUHU216HW,2013-06-23 15:17:00,
2013-06-23 10:22:00,80.3,71.3,30.03,WSW,248,2.0,4.0,74,0.00,,,0.00,WUHU216HW,2013-06-23 15:22:00,
2013-06-23 10:27:00,80.5,71.5,30.04,NW,315,2.0,3.4,74,0.00,,,0.00,WUHU216HW,2013-06-23 15:27:00,
2013-06-23 10:32:00,80.6,71.7,30.04,SW,225,1.1,3.6,74,0.00,,,0.00,WUHU216HW,2013-06-23 15:32:00,
2013-06-23 10:37:00,80.8,71.7,30.04,South,180,0.9,3.6,74,0.00,,,0.00,WUHU216HW,2013-06-23 15:37:00,
2013-06-23 10:42:00,81.0,71.9,30.04,WSW,248,1.1,2.7,74,0.00,,,0.00,WUHU216HW,2013-06-23 15:42:00,
2013-06-23 10:47:00,81.4,72.3,30.04,SSW,203,1.6,5.8,74,0.00,,,0.00,WUHU216HW,2013-06-23 15:47:00,
2013-06-23 10:52:00,81.5,72.5,30.04,SE,135,4.9,5.8,74,0.00,,,0.00,WUHU216HW,2013-06-23 15:52:00,
2013-06-23 10:57:00,81.7,72.2,30.04,WSW,248,2.2,4.9,73,0.00,,,0.00,WUHU216HW,2013-06-23 15:57:00,
2013-06-23 11:02:00,81.9,72.0,30.05,South,180,1.1,5.4,72,0.00,,,0.00,WUHU216HW,2013-06-23 16:02:00,
2013-06-23 11:07:00,81.9,71.6,30.05,SW,225,0.7,5.4,71,0.00,,,0.00,WUHU216HW,2013-06-23 16:07:00,
2013-06-23 11:12:00,82.1,72.5,30.04,SSE,158,1.8,3.4,73,0.00,,,0.00,WUHU216HW,2013-06-23 16:12:00,
2013-06-23 11:17:00,82.1,72.5,30.04,South,180,2.5,3.8,73,0.00,,,0.00,WUHU216HW,2013-06-23 16:17:00,
2013-06-23 11:22:00,81.9,72.0,30.05,SW,225,1.8,4.9,72,0.00,,,0.00,WUHU216HW,2013-06-23 16:22:00,
2013-06-23 11:27:00,81.7,71.4,30.05,West,270,0.2,4.9,71,0.00,,,0.00,WUHU216HW,2013-06-23 16:27:00,
2013-06-23 11:32:00,81.9,72.0,30.06,WSW,248,0.7,2.5,72,0.00,,,0.00,WUHU216HW,2013-06-23 16:32:00,
2013-06-23 11:37:00,81.7,71.8,30.06,SW,225,2.2,2.9,72,0.00,,,0.00,WUHU216HW,2013-06-23 16:37:00,
2013-06-23 11:42:00,81.7,72.2,30.06,SE,135,0.0,2.9,73,0.00,,,0.00,WUHU216HW,2013-06-23 16:42:00,
2013-06-23 11:47:00,81.7,72.2,30.06,SE,135,0.0,2.2,73,0.00,,,0.00,WUHU216HW,2013-06-23 16:47:00,
2013-06-23 11:52:00,81.7,72.2,30.06,SW,225,1.1,1.1,73,0.00,,,0.00,WUHU216HW,2013-06-23 16:52:00,
2013-06-23 11:57:00,81.7,72.2,30.06,SSE,158,0.2,1.1,73,0.00,,,0.00,WUHU216HW,2013-06-23 16:57:00,
2013-06-23 12:02:00,81.7,72.6,30.06,SE,135,0.4,1.6,74,0.00,,,0.00,WUHU216HW,2013-06-23 17:02:00,
2013-06-23 12:07:00,81.5,72.5,30.06,SSE,158,1.1,2.2,74,0.00,,,0.00,WUHU216HW,2013-06-23 17:07:00,
2013-06-23 12:12:00,81.5,72.0,30.06,SW,225,0.0,2.2,73,0.00,,,0.00,WUHU216HW,2013-06-23 17:12:00,
2013-06-23 12:17:00,81.5,72.5,30.06,South,180,0.0,1.3,74,0.00,,,0.00,WUHU216HW,2013-06-23 17:17:00,
2013-06-23 12:22:00,81.5,72.5,30.06,SE,135,0.0,1.3,74,0.00,,,0.00,WUHU216HW,2013-06-23 17:22:00,
2013-06-23 12:27:00,81.5,72.5,30.06,SSW,203,0.0,1.6,74,0.00,,,0.00,WUHU216HW,2013-06-23 17:27:00,
2013-06-23 12:32:00,81.7,72.6,30.06,West,270,0.0,1.6,74,0.00,,,0.00,WUHU216HW,2013-06-23 17:32:00,
2013-06-23 12:37:00,81.7,72.6,30.06,West,270,0.0,1.1,74,0.00,,,0.00,WUHU216HW,2013-06-23 17:37:00,
2013-06-23 12:42:00,81.7,72.6,30.06,NE,45,0.2,0.7,74,0.00,,,0.00,WUHU216HW,2013-06-23 17:42:00,
2013-06-23 12:47:00,81.7,72.6,30.05,NE,45,0.2,0.7,74,0.00,,,0.00,WUHU216HW,2013-06-23 17:47:00,
2013-06-23 12:52:00,81.7,72.2,30.06,NNW,338,0.0,0.7,73,0.00,,,0.00,WUHU216HW,2013-06-23 17:52:00,
2013-06-23 12:57:00,81.9,72.4,30.05,East,90,0.4,1.8,73,0.00,,,0.00,WUHU216HW,2013-06-23 17:57:00,
2013-06-23 13:02:00,81.9,72.8,30.05,SE,135,0.9,1.8,74,0.00,,,0.00,WUHU216HW,2013-06-23 18:02:00,
2013-06-23 13:07:00,82.1,73.4,30.05,ESE,113,0.9,1.8,75,0.00,,,0.00,WUHU216HW,2013-06-23 18:07:00,
2013-06-23 13:12:00,82.1,73.4,30.04,North,0,0.0,1.8,75,0.00,,,0.00,WUHU216HW,2013-06-23 18:12:00,
2013-06-23 13:17:00,82.1,73.4,30.04,NNE,23,0.4,1.3,75,0.00,,,0.00,WUHU216HW,2013-06-23 18:17:00,
2013-06-23 13:22:00,82.1,73.4,30.04,North,0,0.0,1.3,75,0.00,,,0.00,WUHU216HW,2013-06-23 18:22:00,
2013-06-23 13:27:00,82.1,73.4,30.04,North,0,0.0,0.4,75,0.00,,,0.00,WUHU216HW,2013-06-23 18:27:00,
2013-06-23 13:32:00,82.3,73.5,30.04,ESE,113,3.4,3.4,75,0.00,,,0.00,WUHU216HW,2013-06-23 18:32:00,
2013-06-23 13:37:00,82.1,73.4,30.04,South,180,0.4,3.4,75,0.00,,,0.00,WUHU216HW,2013-06-23 18:37:00,
2013-06-23 13:42:00,82.1,73.4,30.03,South,180,0.4,2.2,75,0.00,,,0.00,WUHU216HW,2013-06-23 18:42:00,
2013-06-23 13:47:00,82.3,73.5,30.03,South,180,0.0,0.7,75,0.00,,,0.00,WUHU216HW,2013-06-23 18:47:00,
2013-06-23 13:52:00,82.3,73.5,30.03,ENE,68,0.2,1.6,75,0.00,,,0.00,WUHU216HW,2013-06-23 18:52:00,
2013-06-23 13:57:00,82.4,73.7,30.03,East,90,0.0,2.0,75,0.00,,,0.00,WUHU216HW,2013-06-23 18:57:00,
2013-06-23 14:02:00,82.6,74.3,30.03,NW,315,0.9,2.0,76,0.00,,,0.00,WUHU216HW,2013-06-23 19:02:00,
2013-06-23 14:07:00,83.0,74.3,30.03,South,180,1.3,2.0,75,0.00,,,0.00,WUHU216HW,2013-06-23 19:07:00,
2013-06-23 14:12:00,83.5,74.7,30.02,North,0,1.8,2.2,75,0.00,,,0.00,WUHU216HW,2013-06-23 19:12:00,
2013-06-23 14:17:00,83.9,74.7,30.02,SSW,203,1.8,2.7,74,0.00,,,0.00,WUHU216HW,2013-06-23 19:17:00,
2013-06-23 14:22:00,84.2,75.1,30.02,SE,135,1.1,2.7,74,0.00,,,0.00,WUHU216HW,2013-06-23 19:22:00,
2013-06-23 14:27:00,84.6,74.6,30.02,ESE,113,0.4,3.4,72,0.00,,,0.00,WUHU216HW,2013-06-23 19:27:00,
2013-06-23 14:32:00,85.1,75.2,30.02,SSW,203,3.6,5.6,72,0.00,,,0.00,WUHU216HW,2013-06-23 19:32:00,
2013-06-23 14:37:00,85.7,75.7,30.02,SW,225,3.1,5.6,72,0.00,,,0.00,WUHU216HW,2013-06-23 19:37:00,
2013-06-23 14:42:00,85.9,75.4,30.02,WSW,248,3.4,4.0,71,0.00,,,0.00,WUHU216HW,2013-06-23 19:42:00,
2013-06-23 14:47:00,86.4,75.6,30.02,South,180,0.9,4.3,70,0.00,,,0.00,WUHU216HW,2013-06-23 19:47:00,
2013-06-23 14:52:00,86.8,75.9,30.01,South,180,2.0,4.3,70,0.00,,,0.00,WUHU216HW,2013-06-23 19:52:00,
2013-06-23 14:57:00,86.8,75.9,30.00,SSE,158,5.4,5.4,70,0.00,,,0.00,WUHU216HW,2013-06-23 19:57:00,
2013-06-23 15:02:00,86.6,75.2,29.99,SSE,158,2.2,7.2,69,0.00,,,0.00,WUHU216HW,2013-06-23 20:02:00,
2013-06-23 15:07:00,86.6,75.2,29.98,SE,135,9.8,9.8,69,0.00,,,0.00,WUHU216HW,2013-06-23 20:07:00,
2013-06-23 15:12:00,86.8,75.0,29.96,SSE,158,5.4,9.8,68,0.00,,,0.00,WUHU216HW,2013-06-23 20:12:00,
2013-06-23 15:17:00,86.9,75.2,29.96,SE,135,5.4,9.4,68,0.00,,,0.00,WUHU216HW,2013-06-23 20:17:00,
2013-06-23 15:22:00,86.9,74.7,29.95,SSW,203,4.3,9.4,67,0.00,,,0.00,WUHU216HW,2013-06-23 20:22:00,
2013-06-23 15:27:00,86.8,74.5,29.94,SSE,158,7.4,9.4,67,0.00,,,0.00,WUHU216HW,2013-06-23 20:27:00,
2013-06-23 15:32:00,86.8,74.5,29.94,South,180,6.0,9.4,67,0.00,,,0.00,WUHU216HW,2013-06-23 20:32:00,
2013-06-23 15:37:00,86.8,74.5,29.93,SW,225,4.3,10.5,67,0.00,,,0.00,WUHU216HW,2013-06-23 20:37:00,
2013-06-23 15:42:00,86.8,74.5,29.92,SSE,158,2.5,10.5,67,0.00,,,0.00,WUHU216HW,2013-06-23 20:42:00,
2013-06-23 15:47:00,86.6,74.4,29.91,SW,225,3.6,7.8,67,0.00,,,0.00,WUHU216HW,2013-06-23 20:47:00,
2013-06-23 15:52:00,86.6,74.4,29.91,SE,135,6.9,8.5,67,0.00,,,0.00,WUHU216HW,2013-06-23 20:52:00,
2013-06-23 15:57:00,86.4,74.2,29.90,South,180,3.4,9.2,67,0.00,,,0.00,WUHU216HW,2013-06-23 20:57:00,
2013-06-23 16:02:00,86.2,74.0,29.90,SE,135,8.5,10.7,67,0.00,,,0.00,WUHU216HW,2013-06-23 21:02:00,
2013-06-23 16:07:00,86.4,74.2,29.91,South,180,4.7,10.7,67,0.00,,,0.00,WUHU216HW,2013-06-23 21:07:00,
2013-06-23 16:12:00,86.2,74.0,29.91,SSW,203,4.9,8.7,67,0.00,,,0.00,WUHU216HW,2013-06-23 21:12:00,
2013-06-23 16:17:00,86.2,74.0,29.93,South,180,5.6,8.7,67,0.00,,,0.00,WUHU216HW,2013-06-23 21:17:00,
2013-06-23 16:22:00,86.2,73.5,29.93,SSE,158,4.3,11.4,66,0.00,,,0.00,WUHU216HW,2013-06-23 21:22:00,
2013-06-23 16:27:00,86.2,73.5,29.93,SSE,158,5.8,11.4,66,0.00,,,0.00,WUHU216HW,2013-06-23 21:27:00,
2013-06-23 16:32:00,86.6,73.9,29.94,SW,225,6.5,7.8,66,0.00,,,0.00,WUHU216HW,2013-06-23 21:32:00,
2013-06-23 16:37:00,87.1,73.9,29.94,WSW,248,1.8,7.6,65,0.00,,,0.00,WUHU216HW,2013-06-23 21:37:00,
2013-06-23 16:42:00,87.3,73.6,29.95,SE,135,4.3,10.1,64,0.00,,,0.00,WUHU216HW,2013-06-23 21:42:00,
2013-06-23 16:47:00,87.5,73.4,29.96,SSE,158,4.3,10.1,63,0.00,,,0.00,WUHU216HW,2013-06-23 21:47:00,
2013-06-23 16:52:00,87.7,73.5,29.96,South,180,1.8,8.5,63,0.00,,,0.00,WUHU216HW,2013-06-23 21:52:00,
2013-06-23 16:57:00,87.7,73.5,29.96,WSW,248,2.9,8.5,63,0.00,,,0.00,WUHU216HW,2013-06-23 21:57:00,
2013-06-23 17:02:00,87.7,73.5,29.96,South,180,5.4,6.5,63,0.00,,,0.00,WUHU216HW,2013-06-23 22:02:00,
2013-06-23 17:07:00,87.8,73.3,29.97,South,180,3.1,7.4,62,0.00,,,0.00,WUHU216HW,2013-06-23 22:07:00,
2013-06-23 17:12:00,87.8,73.3,29.97,South,180,1.1,7.4,62,0.00,,,0.00,WUHU216HW,2013-06-23 22:12:00,
2013-06-23 17:17:00,87.7,73.1,29.97,NNE,23,2.9,6.3,62,0.00,,,0.00,WUHU216HW,2013-06-23 22:17:00,
2013-06-23 17:22:00,87.5,72.9,29.97,SW,225,0.9,6.3,62,0.00,,,0.00,WUHU216HW,2013-06-23 22:22:00,
2013-06-23 17:27:00,87.7,73.1,29.97,SSW,203,1.8,5.1,62,0.00,,,0.00,WUHU216HW,2013-06-23 22:27:00,
2013-06-23 17:32:00,87.8,73.3,29.97,WSW,248,1.8,5.4,62,0.00,,,0.00,WUHU216HW,2013-06-23 22:32:00,
2013-06-23 17:37:00,88.2,73.6,29.97,SSE,158,2.5,5.4,62,0.00,,,0.00,WUHU216HW,2013-06-23 22:37:00,
2013-06-23 17:42:00,88.2,73.6,29.98,SE,135,1.8,4.0,62,0.00,,,0.00,WUHU216HW,2013-06-23 22:42:00,
2013-06-23 17:47:00,88.2,73.6,29.97,SW,225,4.0,4.5,62,0.00,,,0.00,WUHU216HW,2013-06-23 22:47:00,
2013-06-23 17:52:00,88.2,73.2,29.97,West,270,4.3,4.7,61,0.00,,,0.00,WUHU216HW,2013-06-23 22:52:00,
2013-06-23 17:57:00,88.2,73.2,29.97,South,180,4.0,4.7,61,0.00,,,0.00,WUHU216HW,2013-06-23 22:57:00,
2013-06-23 18:02:00,88.2,73.2,29.96,SSE,158,6.0,7.4,61,0.00,,,0.00,WUHU216HW,2013-06-23 23:02:00,
2013-06-23 18:07:00,88.2,72.7,29.96,SE,135,6.3,7.4,60,0.00,,,0.00,WUHU216HW,2013-06-23 23:07:00,
2013-06-23 18:12:00,88.0,73.0,29.96,SSW,203,6.5,6.5,61,0.00,,,0.00,WUHU216HW,2013-06-23 23:12:00,
2013-06-23 18:17:00,87.8,72.8,29.96,SW,225,2.9,6.9,61,0.00,,,0.00,WUHU216HW,2013-06-23 23:17:00,
2013-06-23 18:22:00,88.0,73.0,29.96,SSE,158,1.8,6.9,61,0.00,,,0.00,WUHU216HW,2013-06-23 23:22:00,
2013-06-23 18:27:00,87.8,72.8,29.96,South,180,3.4,8.1,61,0.00,,,0.00,WUHU216HW,2013-06-23 23:27:00,
2013-06-23 18:32:00,87.8,72.8,29.96,WSW,248,3.6,8.1,61,0.00,,,0.00,WUHU216HW,2013-06-23 23:32:00,
2013-06-23 18:37:00,87.7,72.6,29.96,SSE,158,6.0,6.5,61,0.00,,,0.00,WUHU216HW,2013-06-23 23:37:00,
2013-06-23 18:42:00,87.5,72.5,29.96,SW,225,3.4,6.5,61,0.00,,,0.00,WUHU216HW,2013-06-23 23:42:00,
2013-06-23 18:47:00,87.3,72.3,29.95,SE,135,3.4,4.7,61,0.00,,,0.00,WUHU216HW,2013-06-23 23:47:00,
2013-06-23 18:52:00,87.1,72.1,29.95,SSW,203,4.3,6.3,61,0.00,,,0.00,WUHU216HW,2013-06-23 23:52:00,
2013-06-23 18:57:00,87.1,71.6,29.95,South,180,2.7,10.1,60,0.00,,,0.00,WUHU216HW,2013-06-23 23:57:00,
2013-06-23 19:02:00,86.9,71.5,29.95,SSW,203,8.1,10.1,60,0.00,,,0.00,WUHU216HW,2013-06-24 00:02:00,
2013-06-23 19:07:00,86.9,71.5,29.95,SSW,203,1.1,8.1,60,0.00,,,0.00,WUHU216HW,2013-06-24 00:07:00,
2013-06-23 19:12:00,86.8,71.3,29.96,SSE,158,3.8,8.1,60,0.00,,,0.00,WUHU216HW,2013-06-24 00:12:00,
2013-06-23 19:17:00,86.8,71.3,29.95,SSE,158,1.8,6.3,60,0.00,,,0.00,WUHU216HW,2013-06-24 00:17:00,
2013-06-23 19:22:00,86.8,71.7,29.96,South,180,0.9,6.3,61,0.00,,,0.00,WUHU216HW,2013-06-24 00:22:00,
2013-06-23 19:27:00,86.6,71.6,29.96,SSW,203,2.5,4.9,61,0.00,,,0.00,WUHU216HW,2013-06-24 00:27:00,
2013-06-23 19:32:00,86.6,71.6,29.96,SE,135,2.2,4.9,61,0.00,,,0.00,WUHU216HW,2013-06-24 00:32:00,
2013-06-23 19:37:00,86.4,71.4,29.96,SSE,158,0.7,5.6,61,0.00,,,0.00,WUHU216HW,2013-06-24 00:37:00,
2013-06-23 19:42:00,86.2,71.2,29.96,SW,225,2.0,5.6,61,0.00,,,0.00,WUHU216HW,2013-06-24 00:42:00,
2013-06-23 19:47:00,86.0,71.5,29.96,East,90,0.7,5.1,62,0.00,,,0.00,WUHU216HW,2013-06-24 00:47:00,
2013-06-23 19:52:00,85.9,71.4,29.97,South,180,2.2,3.4,62,0.00,,,0.00,WUHU216HW,2013-06-24 00:52:00,
2013-06-23 19:57:00,85.7,71.2,29.97,South,180,2.0,3.6,62,0.00,,,0.00,WUHU216HW,2013-06-24 00:57:00,
2013-06-23 20:02:00,85.5,71.5,29.97,SSE,158,2.0,3.6,63,0.00,,,0.00,WUHU216HW,2013-06-24 01:02:00,
2013-06-23 20:07:00,85.3,71.3,29.98,ESE,113,1.1,4.0,63,0.00,,,0.00,WUHU216HW,2013-06-24 01:07:00,
2013-06-23 20:12:00,85.1,71.6,29.98,West,270,0.9,4.0,64,0.00,,,0.00,WUHU216HW,2013-06-24 01:12:00,
2013-06-23 20:17:00,85.0,71.5,29.98,SSE,158,0.4,2.0,64,0.00,,,0.00,WUHU216HW,2013-06-24 01:17:00,
2013-06-23 20:22:00,84.8,71.7,29.99,SSW,203,0.0,1.8,65,0.00,,,0.00,WUHU216HW,2013-06-24 01:22:00,
2013-06-23 20:27:00,84.8,71.7,29.99,South,180,1.1,1.6,65,0.00,,,0.00,WUHU216HW,2013-06-24 01:27:00,
2013-06-23 20:32:00,84.6,71.6,29.99,SSE,158,0.9,1.6,65,0.00,,,0.00,WUHU216HW,2013-06-24 01:32:00,
2013-06-23 20:37:00,84.4,71.4,29.99,ESE,113,0.0,1.6,65,0.00,,,0.00,WUHU216HW,2013-06-24 01:37:00,
2013-06-23 20:42:00,84.2,71.2,29.99,South,180,0.0,2.0,65,0.00,,,0.00,WUHU216HW,2013-06-24 01:42:00,
2013-06-23 20:47:00,84.1,71.5,29.99,ESE,113,0.0,2.0,66,0.00,,,0.00,WUHU216HW,2013-06-24 01:47:00,
2013-06-23 20:52:00,83.9,71.3,30.00,NNE,23,0.7,1.6,66,0.00,,,0.00,WUHU216HW,2013-06-24 01:52:00,
2013-06-23 20:57:00,83.5,70.9,30.00,SSW,203,0.9,1.6,66,0.00,,,0.00,WUHU216HW,2013-06-24 01:57:00,
2013-06-23 21:02:00,83.5,70.9,30.00,South,180,0.0,1.1,66,0.00,,,0.00,WUHU216HW,2013-06-24 02:02:00,
2013-06-23 21:07:00,83.2,70.6,30.00,NE,45,0.9,1.1,66,0.00,,,0.00,WUHU216HW,2013-06-24 02:07:00,
2013-06-23 21:12:00,83.2,71.0,30.00,SSW,203,0.0,1.8,67,0.00,,,0.00,WUHU216HW,2013-06-24 02:12:00,
2013-06-23 21:17:00,82.8,70.7,30.00,East,90,0.2,1.8,67,0.00,,,0.00,WUHU216HW,2013-06-24 02:17:00,
2013-06-23 21:22:00,82.6,70.5,30.01,ESE,113,0.2,1.8,67,0.00,,,0.00,WUHU216HW,2013-06-24 02:22:00,
2013-06-23 21:27:00,82.4,69.8,30.01,SE,135,0.4,1.3,66,0.00,,,0.00,WUHU216HW,2013-06-24 02:27:00,
2013-06-23 21:32:00,82.3,69.7,30.01,SE,135,0.0,1.8,66,0.00,,,0.00,WUHU216HW,2013-06-24 02:32:00,
2013-06-23 21:37:00,82.1,69.5,30.01,SSE,158,1.3,3.4,66,0.00,,,0.00,WUHU216HW,2013-06-24 02:37:00,
2013-06-23 21:42:00,81.9,69.4,30.01,SE,135,0.4,3.4,66,0.00,,,0.00,WUHU216HW,2013-06-24 02:42:00,
2013-06-23 21:47:00,81.7,69.7,30.02,SE,135,1.3,2.5,67,0.00,,,0.00,WUHU216HW,2013-06-24 02:47:00,
2013-06-23 21:52:00,81.7,69.7,30.02,SSE,158,1.8,4.0,67,0.00,,,0.00,WUHU216HW,2013-06-24 02:52:00,
2013-06-23 21:57:00,81.5,69.5,30.02,SSW,203,2.5,4.3,67,0.00,,,0.00,WUHU216HW,2013-06-24 02:57:00,
2013-06-23 22:02:00,81.4,69.3,30.02,SSE,158,2.9,4.3,67,0.00,,,0.00,WUHU216HW,2013-06-24 03:02:00,
2013-06-23 22:07:00,81.4,69.3,30.02,South,180,1.3,3.4,67,0.00,,,0.00,WUHU216HW,2013-06-24 03:07:00,
2013-06-23 22:12:00,81.4,69.3,30.02,SW,225,2.7,3.4,67,0.00,,,0.00,WUHU216HW,2013-06-24 03:12:00,
2013-06-23 22:17:00,81.4,69.8,30.02,SSE,158,1.1,2.7,68,0.00,,,0.00,WUHU216HW,2013-06-24 03:17:00,
2013-06-23 22:22:00,81.2,69.6,30.02,SSW,203,2.0,3.4,68,0.00,,,0.00,WUHU216HW,2013-06-24 03:22:00,
2013-06-23 22:27:00,81.0,69.5,30.02,South,180,1.3,3.4,68,0.00,,,0.00,WUHU216HW,2013-06-24 03:27:00,
2013-06-23 22:32:00,81.0,69.5,30.02,SW,225,3.6,3.6,68,0.00,,,0.00,WUHU216HW,2013-06-24 03:32:00,
2013-06-23 22:37:00,81.0,69.5,30.03,South,180,1.8,3.6,68,0.00,,,0.00,WUHU216HW,2013-06-24 03:37:00,
2013-06-23 22:42:00,80.8,69.3,30.03,SSE,158,4.0,5.4,68,0.00,,,0.00,WUHU216HW,2013-06-24 03:42:00,
2013-06-23 22:47:00,80.8,69.3,30.03,SE,135,3.8,5.4,68,0.00,,,0.00,WUHU216HW,2013-06-24 03:47:00,
2013-06-23 22:52:00,80.8,69.3,30.03,SSW,203,2.5,5.4,68,0.00,,,0.00,WUHU216HW,2013-06-24 03:52:00,
2013-06-23 22:57:00,80.8,69.3,30.03,SW,225,1.8,5.4,68,0.00,,,0.00,WUHU216HW,2013-06-24 03:57:00,
2013-06-23 23:01:00,80.6,69.6,30.03,SW,225,2.7,5.4,69,0.00,,,0.00,WUHU216HW,2013-06-24 04:01:00,
2013-06-23 23:06:00,80.6,69.6,30.03,SW,225,6.0,6.0,69,0.00,,,0.00,WUHU216HW,2013-06-24 04:06:00,
2013-06-23 23:11:00,80.6,69.1,30.03,South,180,5.6,6.0,68,0.00,,,0.00,WUHU216HW,2013-06-24 04:11:00,
2013-06-23 23:16:00,80.6,69.1,30.04,SSE,158,2.7,6.9,68,0.00,,,0.00,WUHU216HW,2013-06-24 04:16:00,
2013-06-23 23:21:00,80.6,69.1,30.03,SSW,203,2.5,7.2,68,0.00,,,0.00,WUHU216HW,2013-06-24 04:21:00,
2013-06-23 23:26:00,80.6,69.1,30.04,South,180,1.8,7.2,68,0.00,,,0.00,WUHU216HW,2013-06-24 04:26:00,
2013-06-23 23:31:00,80.6,69.1,30.04,ESE,113,1.1,6.5,68,0.00,,,0.00,WUHU216HW,2013-06-24 04:31:00,
2013-06-23 23:36:00,80.6,69.1,30.04,SW,225,1.8,4.9,68,0.00,,,0.00,WUHU216HW,2013-06-24 04:36:00,
2013-06-23 23:41:00,80.6,68.7,30.04,South,180,2.9,5.6,67,0.00,,,0.00,WUHU216HW,2013-06-24 04:41:00,
2013-06-23 23:46:00,80.6,68.7,30.04,WSW,248,4.5,6.3,67,0.00,,,0.00,WUHU216HW,2013-06-24 04:46:00,
2013-06-23 23:51:00,80.6,68.7,30.04,SSW,203,1.8,6.3,67,0.00,,,0.00,WUHU216HW,2013-06-24 04:51:00,
2013-06-23 23:56:00,80.6,68.7,30.04,South,180,2.5,5.6,67,0.00,,,0.00,WUHU216HW,2013-06-24 04:56:00,